Franklin, PA

7:50 PM EST on December 11, 2019 (GMT -0500)
Venango Regional

Weather History for KFKL - May, 2019

Change the Weather History Date:

Sunday, May 19, 2019

  Actual Average Record
Temperature  
Mean Temperature 72 °F -  
Max Temperature 84 °F 71 °F 89 °F (1962)
Min Temperature 59 °F 45 °F 28 °F (2002)
Cooling Degree Days 6    
Growing Degree Days 22 (Base 50)    
Moisture  
Dew Point 59 °F    
Average Humidity 74    
Maximum Humidity 96    
Minimum Humidity 41    
Precipitation  
Precipitation 0.11 in - - ()
Sea Level Pressure  
Sea Level Pressure 29.88 in    
Wind  
Wind Speed 9 mph (SSW)    
Max Wind Speed 22 mph    
Max Gust Speed 36 mph    
Visibility 10 miles    
Events Rain    
Averages and records for this station are not official NWS values.
T = Trace of Precipitation, MM = Missing Value Source: NWS Daily Summary

Daily Weather History Graph

Daily Weather History Graph

Search for Another Location

Airport or City:

Astronomy

May. 19, 2019 Rise Set
Actual Time 5:57 AM EDT 8:35 PM EDT
Civil Twilight 5:25 AM EDT 9:07 PM EDT
Nautical Twilight 4:45 AM EDT 9:47 PM EDT
Astronomical Twilight 4:00 AM EDT 10:32 PM EDT
Moon 9:33 PM EDT (5/19) 6:41 AM EDT (5/19)
Length of Visible Light 15h 41m
Length of Day
14h 38m
Full, 99% of the Moon is Illuminated
May 19
Full
May 26
Last Quarter
Jun 3
New
Jun 10
First Quarter
Jun 17
Full

Hourly Weather History & Observations

Time (EDT) Temp. Heat Index Dew Point Humidity Pressure Visibility Wind Dir Wind Speed Gust Speed Precip Events Conditions
12:56 AM 66.0 °F - 59.0 °F 78% 29.94 in 10.0 mi South 8.1 mph - N/A   Clear
1:56 AM 66.9 °F - 59.0 °F 76% 29.93 in 10.0 mi South 10.4 mph - N/A   Clear
2:56 AM 66.0 °F - 59.0 °F 78% 29.93 in 10.0 mi South 9.2 mph - N/A   Clear
3:56 AM 64.0 °F - 59.0 °F 84% 29.92 in 10.0 mi SSW 6.9 mph - N/A   Clear
4:56 AM 64.0 °F - 59.0 °F 84% 29.93 in 10.0 mi SSW 4.6 mph - N/A   Clear
5:56 AM 63.0 °F - 59.0 °F 87% 29.93 in 10.0 mi South 5.8 mph - N/A   Scattered Clouds
6:56 AM 64.0 °F - 59.0 °F 84% 29.93 in 10.0 mi SSW 4.6 mph - N/A   Clear
7:56 AM 66.9 °F - 60.1 °F 79% 29.93 in 10.0 mi South 8.1 mph - N/A   Clear
8:56 AM 71.1 °F - 62.1 °F 73% 29.93 in 10.0 mi South 5.8 mph - N/A   Clear
9:56 AM 75.0 °F - 63.0 °F 66% 29.93 in 10.0 mi SSW 10.4 mph - N/A   Clear
10:56 AM 79.0 °F - 64.0 °F 60% 29.91 in 10.0 mi SSW 13.8 mph - N/A   Clear
11:56 AM 79.0 °F - 63.0 °F 58% 29.91 in 10.0 mi SW 17.3 mph 25.3 mph N/A   Partly Cloudy
12:56 PM 81.0 °F 82.2 °F 63.0 °F 54% 29.89 in 10.0 mi WSW 13.8 mph 24.2 mph N/A   Scattered Clouds
1:56 PM 82.0 °F 83.0 °F 62.1 °F 51% 29.87 in 10.0 mi SSW 16.1 mph 25.3 mph N/A   Partly Cloudy
2:56 PM 84.0 °F 83.8 °F 59.0 °F 43% 29.83 in 10.0 mi SW 18.4 mph 24.2 mph N/A   Partly Cloudy
3:56 PM 82.0 °F 81.6 °F 55.9 °F 41% 29.81 in 10.0 mi SSW 21.9 mph 35.7 mph N/A   Partly Cloudy
4:56 PM 81.0 °F 80.8 °F 55.9 °F 42% 29.80 in 10.0 mi SW 18.4 mph 27.6 mph N/A   Partly Cloudy
5:56 PM 81.0 °F 81.0 °F 57.0 °F 44% 29.80 in 10.0 mi SW 13.8 mph 21.9 mph N/A   Partly Cloudy
6:56 PM 79.0 °F - 55.9 °F 45% 29.81 in 10.0 mi WSW 13.8 mph - N/A   Scattered Clouds
7:56 PM 75.9 °F - 55.9 °F 50% 29.81 in 10.0 mi SW 5.8 mph - N/A   Scattered Clouds
8:47 PM 60.8 °F - 59.0 °F 94% 29.88 in 9.0 mi WNW 15.0 mph 25.3 mph 0.00 in Rain Light Rain
8:56 PM 61.0 °F - 59.0 °F 93% 29.87 in 10.0 mi NW 12.7 mph 20.7 mph 0.00 in Rain Light Rain
9:31 PM 60.8 °F - 57.2 °F 88% 29.90 in 10.0 mi WNW 5.8 mph 17.3 mph 0.03 in Rain Light Rain
9:56 PM 59.0 °F - 57.9 °F 96% 29.85 in 10.0 mi ENE 5.8 mph - 0.05 in Rain Light Rain
10:09 PM 59.0 °F - 57.2 °F 94% 29.88 in 10.0 mi Calm Calm - 0.00 in Rain Light Rain
10:23 PM 59.0 °F - 57.2 °F 94% 29.90 in 8.0 mi SSE 4.6 mph - 0.02 in Rain Rain
10:31 PM 59.0 °F - 57.2 °F 94% 29.88 in 7.0 mi South 3.5 mph - 0.04 in Rain Light Rain
10:42 PM 59.0 °F - 57.2 °F 94% 29.90 in 10.0 mi South 4.6 mph - 0.04 in Rain Light Rain
10:56 PM 60.1 °F - 59.0 °F 96% 29.85 in 7.0 mi SSE 4.6 mph - 0.06 in Rain Light Rain
11:56 PM 61.0 °F - 57.9 °F 90% 29.83 in 10.0 mi SW 5.8 mph - 0.00 in   Overcast